sat.trackr.live / text

‹ back to catalog

STARLINK-36076

NORAD 66588 · 2025-270A

PAYLOAD ACTIVE UNKNOWN

§ Identity

Operator
Country
US
Launch date
2025-11-22
Launch site
AFETR
Launch vehicle
Mass (kg)
RCS (m²)

Purposes: comms

External: N2YO · Heavens-Above · Gunter

§ Orbital elements

Epoch: 2026-05-24T23:02:06.952416Z

Period
94.27 min
Inclination
43.0033°
Eccentricity
0.0001487
Mean motion
15.27601760 rev/d
Perigee alt
482.0 km
Apogee alt
484.0 km
Semi-major
6,861.1 km
B*
6.6299e-4
RAAN
345.1744°
Arg perigee
269.4134°
Mean anomaly
90.6547°
Rev number
2,937

§ Raw data

STARLINK-360761 66588U 25270A   26144.95980269  .00018039  00000+0  66299-3 0  99992 66588  43.0033 345.1744 0001487 269.4134  90.6547 15.27601760 29372

JSON: /api/v1/satellites/66588 · /tle

For live sub-satellite position, see the globe view (requires WebGL).

§ Visibility from observer

Set your observer location to see the next 7 days of passes ≥ 10°. The values pass through the URL so the page stays shareable.

No JS? Fill the form by hand. The geolocation button needs JavaScript.